Knoxville, TN

2:28 PM EST on November 13, 2019 (GMT -0500)
McGhee Tyson

Weather History for KTYS - October, 2019

Change the Weather History Date:

Wednesday, October 23, 2019

  Actual Average Record
Temperature  
Mean Temperature 54 °F 58 °F  
Max Temperature 66 °F 69 °F 83 °F (1920)
Min Temperature 42 °F 46 °F 30 °F (1987)
Degree Days  
Heating Degree Days 11 8  
Month to date heating degree days 86 120  
Since 1 July heating degree days 86 143  
Cooling Degree Days 0 1  
Month to date cooling degree days 103 34  
Year to date cooling degree days 1965 1521  
Growing Degree Days 4 (Base 50)    
Moisture  
Dew Point 36 °F    
Average Humidity 56    
Maximum Humidity 89    
Minimum Humidity 25    
Precipitation  
Precipitation 0.00 in 0.08 in 1.56 in (2017)
Month to date precipitation 1.71 1.80  
Year to date precipitation 49.97 38.64  
Snow  
Snow 0.00 in 0.00 in - ()
Month to date snowfall 0.0 0.0  
Since 1 July snowfall 0.0 0.0  
Since 1 September snowfall 0.0 0.0  
Snow Depth 0.00 in    
Sea Level Pressure  
Sea Level Pressure 30.15 in    
Wind  
Wind Speed 4 mph ()    
Max Wind Speed 13 mph    
Max Gust Speed 15 mph    
Visibility 10.0 miles    
Events      
T = Trace of Precipitation, MM = Missing Value Source: Averaged Metar Reports

Daily Weather History Graph

Daily Weather History Graph

Search for Another Location

Airport or City:

Astronomy

Oct. 23, 2019 Rise Set
Actual Time 7:49 AM EDT 6:50 PM EDT
Civil Twilight 7:23 AM EDT 7:16 PM EDT
Nautical Twilight 6:53 AM EDT 7:46 PM EDT
Astronomical Twilight 6:23 AM EDT 8:16 PM EDT
Moon 2:21 AM EDT (10/23) 4:27 PM EDT (10/23)
Length of Visible Light 11h 53m
Length of Day
11h 01m
Waning Crescent, 27% of the Moon is Illuminated
Oct 23
Waning Crescent
Oct 27
New
Nov 4
First Quarter
Nov 12
Full
Nov 19
Last Quarter

Hourly Weather History & Observations

Time (EDT) Temp. Windchill Dew Point Humidity Pressure Visibility Wind Dir Wind Speed Gust Speed Precip Events Conditions
12:53 AM 52.0 °F - 41.0 °F 66% 30.06 in 10.0 mi West 10.4 mph - N/A   Clear
1:53 AM 51.1 °F - 41.0 °F 68% 30.06 in 10.0 mi WSW 6.9 mph - N/A   Clear
2:53 AM 48.0 °F - 41.0 °F 77% 30.09 in 10.0 mi WSW 4.6 mph - N/A   Clear
3:53 AM 46.9 °F - 39.0 °F 74% 30.10 in 10.0 mi SSW 3.5 mph - N/A   Clear
4:53 AM 45.0 °F 42.6 °F 39.0 °F 80% 30.10 in 10.0 mi South 4.6 mph - N/A   Clear
5:53 AM 45.0 °F 43.5 °F 39.0 °F 80% 30.11 in 10.0 mi SSW 3.5 mph - N/A   Clear
6:53 AM 43.0 °F 39.5 °F 39.0 °F 86% 30.14 in 10.0 mi West 5.8 mph - N/A   Clear
7:53 AM 45.0 °F 43.5 °F 39.0 °F 80% 30.14 in 10.0 mi WSW 3.5 mph - N/A   Clear
8:53 AM 46.0 °F 43.9 °F 41.0 °F 83% 30.18 in 10.0 mi SSW 4.6 mph - N/A   Clear
9:53 AM 50.0 °F - 42.1 °F 74% 30.19 in 10.0 mi WSW 3.5 mph - N/A   Clear
10:53 AM 54.0 °F - 39.0 °F 57% 30.19 in 10.0 mi Calm Calm - N/A   Clear
11:53 AM 59.0 °F - 34.0 °F 39% 30.19 in 10.0 mi Calm Calm - N/A   Clear
12:53 PM 61.0 °F - 30.0 °F 31% 30.19 in 10.0 mi West 3.5 mph - N/A   Clear
1:53 PM 63.0 °F - 30.0 °F 29% 30.18 in 10.0 mi Calm Calm - N/A   Clear
2:53 PM 63.0 °F - 28.9 °F 28% 30.16 in 10.0 mi Calm Calm - N/A   Clear
3:53 PM 64.9 °F - 28.9 °F 26% 30.14 in 10.0 mi Calm Calm - N/A   Clear
4:53 PM 64.9 °F - 28.9 °F 26% 30.14 in 10.0 mi Calm Calm - N/A   Clear
5:53 PM 64.9 °F - 28.0 °F 25% 30.14 in 10.0 mi Variable 3.5 mph - N/A   Clear
6:53 PM 60.1 °F - 30.0 °F 32% 30.15 in 10.0 mi North 5.8 mph - N/A   Clear
7:53 PM 57.0 °F - 32.0 °F 39% 30.17 in 10.0 mi ENE 3.5 mph - N/A   Clear
8:53 PM 52.0 °F - 36.0 °F 54% 30.18 in 10.0 mi ENE 4.6 mph - N/A   Clear
9:53 PM 52.0 °F - 37.0 °F 57% 30.19 in 10.0 mi Calm Calm - N/A   Clear
10:53 PM 48.0 °F - 37.9 °F 68% 30.22 in 10.0 mi Calm Calm - N/A   Clear
11:53 PM 46.0 °F - 39.0 °F 76% 30.21 in 10.0 mi Calm Calm - N/A   Clear